Cloud_Cover
100 100 98 100 0 11 6 11 40 2 61 59 72 0 0 10 21 0 0 0 0 0 0 1 44 5 4 0 1 0 3 6 86 89 32 5 100 100 100 100 100 100 38
100 100 90 41 5 5 2 0 0 5 0 14 26 0 0 1 0 0 0 0 0 0 0 5 0 2 5 5 5 0 5 5 7 93 96 72 29 99 100 100 100 70 96
92 84 100 45 12 47 6 0 2 1 0 0 0 0 0 0 0 2 0 0 0 3 0 1 0 5 5 5 5 71 65 100 100 100 100 85 83 6 98 100 99 91 92
2 0 0 95 71 97 100 100 50 72 82 55 0 0 0 0 0 2 1 0 0 0 0 0 5 22 5 5 5 60 100 100 100 100 100 100 95 70 89 100 92 98 100
77 86 82 87 98 98 98 100 100 100 87 100 84 4 5 0 0 5 3 0 0 0 0 5 2 5 5 5 5 5 68 100 100 100 100 100 100 100 98 78 97 100 100
2 89 13 74 21 98 40 81 100 100 100 100 100 93 52 99 21 0 2 0 0 0 0 0 4 5 5 3 5 2 4 5 65 100 100 100 100 100 100 100 100 100 100
0 1 12 5 0 0 63 72 87 95 100 100 98 100 99 100 98 2 0 2 0 0 0 0 0 3 0 0 5 1 1 5 61 5 8 43 5 10 43 89 96 85 88
0 0 0 0 0 0 2 38 98 52 58 99 100 100 100 100 100 100 34 5 0 0 0 0 0 0 4 4 5 5 7 5 15 5 2 30 33 49 62 37 10 21 38
5 28 36 63 40 0 0 0 0 58 40 100 100 100 100 100 100 100 100 100 76 78 22 22 19 5 16 5 5 16 10 17 5 5 2 2 8 70 11 10 91 100 100
43 45 12 0 0 0 6 13 4 3 1 5 99 100 100 100 100 100 100 100 100 100 100 12 100 62 57 18 2 11 16 26 15 5 5 5 5 2 10 7 54 82 94
100 40 0 0 0 0 24 50 70 64 85 82 94 54 100 100 100 95 85 100 100 100 100 100 100 100 100 69 100 100 93 93 82 53 37 33 96 72 48 85 88 100 100
100 7 0 0 4 61 100 100 100 100 100 100 100 96 99 94 99 98 52 81 41 70 82 100 96 100 100 100 98 100 100 100 100 100 100 100 100 96 96 100 100 100 100
10 0 0 57 100 77 88 100 100 100 100 100 100 100 100 100 91 100 100 100 100 100 82 98 100 100 100 100 100 100 100 100 100 100 100 100 100 100 100 100 100 100 100
5 3 0 50 100 100 100 100 100 100 100 100 100 100 100 100 100 100 100 100 100 100 100 98 86 100 100 100 100 100 100 100 100 100 100 100 100 100 100 100 100 100 98
0 0 0 0 64 100 83 100 100 100 100 100 100 100 100 100 100 100 100 100 100 100 100 100 100 100 100 100 100 100 100 100 100 100 100 100 100 100 100 100 100 100 100
0 0 0 0 0 3 26 79 100 100 100 100 100 100 100 100 100 100 100 100 100 100 100 100 100 100 100 100 100 100 100 100 100 100 100 100 100 100 100 100 100 100 100
0 0 0 0 0 0 0 0 13 88 95 100 100 100 100 100 100 100 100 100 100 100 100 100 100 100 100 100 100 100 100 100 100 100 100 100 100 100 100 100 100 100 100
0 0 0 0 0 0 0 0 0 29 1 96 100 100 100 100 100 100 92 100 100 100 100 100 100 100 100 100 100 100 100 100 100 100 100 100 100 100 100 100 100 100 100
0 0 0 2 1 0 0 0 0 0 0 5 99 100 100 100 100 100 100 100 100 100 100 100 100 100 100 100 100 100 100 100 100 100 100 100 100 100 100 100 100 100 100
0 0 0 1 1 0 0 0 0 7 81 0 3 3 99 100 100 100 100 100 100 100 100 100 100 100 100 100 100 100 100 100 100 100 100 100 100 100 100 100 100 100 100
0 0 0 0 0 0 0 0 0 48 83 25 3 88 95 72 81 100 100 100 100 100 100 100 100 100 100 100 100 100 100 100 100 100 100 100 100 100 100 100 100 100 100
0 5 5 4 0 0 0 0 2 57 3 5 22 74 95 94 84 92 91 100 100 100 100 100 100 100 100 100 100 100 96 100 100 100 100 100 100 100 100 100 100 100 100
5 5 5 4 0 0 0 0 0 0 2 5 2 6 100 100 100 94 100 98 100 100 100 100 100 96 100 100 100 100 100 100 100 100 100 100 100 100 100 100 100 100 100
5 5 5 5 5 0 0 0 0 0 0 0 0 1 8 70 100 100 100 100 100 100 100 100 100 100 100 100 100 100 100 100 100 100 100 100 100 100 100 100 100 100 100
6 5 5 5 5 5 0 0 0 0 0 0 0 0 1 5 4 6 74 98 91 100 100 99 100 63 94 100 100 100 100 100 100 100 100 100 100 100 100 100 100 100 100
66 25 29 77 5 5 5 5 5 2 2 5 1 0 0 0 1 4 5 2 2 21 100 100 100 100 100 100 100 100 100 100 100 100 100 100 100 100 100 100 100 100 100